Wind_Speed
31 32 34 35 38 40 38 35 35 35 35 36 37 37 36 34 33 34 33 32 30 27 27 27 26 25 24 22 22 21 20 19 17 16 14 15 19 15 10 11 11 9 4 6 11 13 14 12 12 11 7 4 1 1 1 2 1 3 3 2 3 2 3 4 5 6 6 6 6 6 5 8 5 1 2 4 7 7 7 7 5 8 8 8 19 28 30 30
32 32 33 33 36 40 38 35 35 34 33 33 35 36 36 35 33 34 33 32 31 28 27 27 27 26 25 23 21 20 18 15 11 10 17 20 20 19 15 10 9 7 3 4 9 10 9 8 12 12 3 1 2 1 1 2 2 3 3 3 4 4 3 3 4 7 6 8 8 7 6 8 7 6 3 4 6 6 7 5 5 9 8 11 20 27 28 30
32 33 34 35 36 39 38 36 35 35 33 32 34 35 36 36 34 34 33 33 32 29 28 27 27 26 25 24 21 20 16 8 3 9 21 25 20 22 20 14 10 7 3 1 5 8 10 12 16 12 2 2 3 1 1 2 2 2 3 2 5 5 2 5 1 6 8 10 11 7 5 7 6 5 4 5 8 6 7 5 5 8 7 9 13 21 25 26
33 33 35 36 37 39 38 36 35 35 34 33 34 35 36 36 35 34 33 33 31 30 28 27 27 25 25 24 22 20 11 2 3 12 23 26 22 22 22 20 13 7 4 1 5 8 13 17 16 10 4 4 3 2 2 3 2 2 3 4 6 3 1 4 4 2 9 10 10 7 6 7 5 4 4 7 8 3 6 8 9 12 12 11 10 16 21 21
34 33 36 37 37 40 38 36 36 35 34 34 34 35 36 36 35 34 34 32 31 30 28 27 26 25 25 24 22 19 10 1 5 12 22 26 25 22 19 20 17 13 7 2 5 9 14 15 10 6 3 3 2 1 3 5 2 1 4 5 5 3 3 4 4 1 6 9 8 8 8 7 5 4 5 8 7 4 6 7 9 14 16 15 14 16 17 17
34 34 36 37 38 40 39 36 35 35 35 34 34 35 35 36 36 35 34 32 31 29 28 27 26 25 24 22 22 20 12 4 2 9 22 25 27 24 17 18 18 16 10 4 5 7 11 9 5 4 3 2 3 3 4 5 5 1 4 3 3 1 5 3 2 2 5 10 8 7 6 5 6 4 4 6 6 6 6 6 9 15 18 19 19 17 15 14
36 36 36 38 39 41 39 37 35 34 34 34 34 35 36 36 35 36 34 32 30 29 29 28 27 26 24 22 20 15 10 6 0 6 19 23 26 24 18 19 19 16 11 7 3 4 7 6 6 4 3 3 4 5 5 4 6 4 4 1 2 2 3 1 1 1 6 10 7 6 6 5 7 5 3 5 4 5 3 3 12 18 21 21 17 15 15 17
37 38 39 40 41 41 39 36 35 34 34 34 34 34 36 35 36 36 34 32 29 29 28 28 28 26 26 24 15 8 8 8 3 5 15 21 23 24 21 20 20 15 11 10 7 6 8 7 9 5 3 6 4 3 4 4 5 6 5 2 2 2 1 1 3 4 7 7 5 7 6 4 6 5 4 5 5 4 3 8 14 17 18 17 14 13 14 16
39 40 42 41 41 41 39 37 36 35 34 35 35 35 35 36 36 36 34 32 29 27 27 29 29 27 28 22 10 7 10 12 7 8 14 20 22 25 24 21 19 16 11 11 11 10 8 5 8 6 5 6 5 4 3 4 5 7 6 4 4 3 2 2 3 5 5 4 5 8 5 1 3 2 2 6 8 5 6 11 12 13 13 12 11 12 13 14
41 41 43 43 44 43 39 39 38 36 35 35 36 35 36 36 35 33 33 31 29 26 26 29 28 28 28 17 9 9 11 16 13 12 15 18 23 26 25 21 19 17 12 10 12 13 11 10 11 6 4 4 3 4 2 4 5 5 6 5 4 4 3 2 3 4 4 3 5 7 5 1 2 1 2 5 8 6 8 11 10 12 11 11 10 11 14 16
42 42 44 45 46 45 41 40 39 37 36 35 35 36 37 36 34 33 33 31 28 26 26 27 27 30 25 13 10 8 10 20 19 17 16 15 21 24 23 21 18 18 15 9 13 19 19 21 17 7 4 3 2 4 4 5 5 8 9 6 2 3 2 3 4 3 3 3 3 7 4 2 5 1 5 6 7 7 9 10 9 11 10 10 11 10 12 15
44 44 44 45 46 45 43 41 40 38 37 37 36 36 36 34 34 33 32 31 28 25 25 25 27 29 20 9 10 7 10 23 24 21 18 13 15 17 19 21 19 19 18 12 15 25 26 25 18 8 6 3 1 2 4 4 5 9 10 7 1 2 3 3 3 2 3 2 3 6 4 4 2 5 7 7 8 6 9 9 8 9 9 9 11 9 10 14
46 45 44 45 46 44 42 42 40 39 38 38 36 35 35 33 33 32 30 29 27 26 24 24 27 25 14 5 8 8 10 23 26 21 17 13 11 12 15 18 18 18 20 18 19 24 26 25 17 9 6 1 1 2 3 3 5 6 5 6 3 3 1 4 3 2 4 1 2 4 2 5 7 8 7 6 9 7 8 8 7 7 7 8 9 8 9 13
48 46 46 47 46 44 43 42 41 39 38 38 37 35 35 33 32 30 28 27 26 26 25 28 27 17 9 3 4 10 11 17 25 24 22 17 13 14 17 17 14 15 19 19 21 22 21 22 14 6 5 3 2 2 4 2 4 5 2 3 4 4 3 5 2 5 4 1 1 6 3 6 7 7 6 7 8 9 8 7 7 7 6 6 7 8 8 11
50 49 48 48 48 46 44 43 42 40 39 38 38 37 35 32 31 29 28 27 26 26 27 29 20 7 3 2 3 10 13 14 21 27 26 21 18 14 16 17 11 13 19 19 20 19 18 15 10 3 4 2 2 2 3 1 1 4 4 2 2 4 3 3 2 6 5 1 2 5 3 5 5 6 6 5 7 9 9 7 7 7 7 6 6 8 7 8
51 51 50 49 49 46 45 45 42 41 40 38 38 37 36 34 32 30 28 26 25 27 28 23 10 3 1 1 2 9 12 14 21 26 26 24 19 12 15 17 10 12 18 19 17 16 13 9 5 2 3 1 3 4 1 0 2 1 4 3 4 5 3 1 3 3 5 3 1 3 3 3 4 6 7 4 6 7 7 7 8 8 8 7 6 7 7 6
52 52 51 51 50 47 46 45 42 42 41 40 40 39 37 35 33 31 28 27 27 25 23 15 5 2 1 2 6 9 10 14 21 26 25 23 17 13 16 13 7 12 14 14 13 11 7 5 3 2 2 2 3 5 3 4 5 2 3 3 4 5 5 3 2 3 4 4 3 3 3 4 5 5 7 6 6 7 7 7 8 8 8 7 7 6 7 7
54 53 53 52 51 49 47 46 45 43 43 44 43 41 39 36 35 32 31 31 27 22 15 8 5 2 2 7 6 6 11 16 24 28 23 20 16 14 19 13 7 10 8 7 7 5 3 2 2 3 2 4 4 5 5 6 5 4 4 4 2 3 5 5 3 4 5 4 5 5 4 7 7 5 6 6 5 8 9 9 8 8 9 8 8 7 7 8
54 53 55 54 52 51 49 48 47 46 49 47 45 45 41 35 29 27 30 28 19 11 7 6 8 2 2 10 6 5 14 20 23 22 19 20 17 15 19 14 8 8 7 5 5 5 4 1 3 5 5 6 6 6 6 7 7 7 6 5 5 4 3 5 3 3 6 5 4 7 6 7 6 7 7 6 5 7 8 7 6 7 8 8 8 8 8 8
54 54 56 54 54 53 51 51 50 53 54 50 52 42 28 21 14 11 15 15 9 3 4 11 11 0 3 8 10 11 17 18 14 14 19 21 19 15 11 8 7 6 6 6 5 4 4 4 5 7 6 7 7 7 7 7 6 7 6 4 5 6 2 2 2 3 3 5 5 7 6 7 7 8 8 7 5 6 8 7 7 7 7 8 9 8 9 9
55 56 56 56 57 54 54 55 54 57 55 55 52 25 12 16 10 12 14 7 9 6 3 17 17 3 3 7 18 20 14 9 7 11 20 21 18 14 5 5 8 7 7 7 5 4 5 6 7 7 7 8 7 7 7 7 4 5 6 5 4 5 3 2 2 3 1 3 5 3 4 8 8 8 8 6 6 7 9 8 8 8 7 7 9 9 9 6
57 58 58 59 59 56 57 58 57 59 54 51 39 12 12 15 5 20 23 7 10 9 1 15 15 5 5 7 24 25 12 6 8 10 17 17 14 11 6 6 9 7 7 6 5 5 5 6 7 8 7 8 8 8 8 7 5 5 5 6 5 4 3 1 2 2 2 2 3 1 5 9 8 7 7 7 9 8 10 11 10 10 8 7 8 9 7 5
58 58 60 58 59 60 59 59 61 58 49 42 27 11 16 13 12 30 23 7 9 8 2 10 12 5 4 7 16 19 12 9 11 11 15 15 10 9 9 8 9 9 8 8 6 6 5 6 7 9 8 7 7 9 9 6 4 5 5 6 5 4 5 1 2 1 2 2 1 2 2 6 6 5 7 8 9 7 8 10 8 7 9 9 8 7 8 9
58 59 58 59 61 60 60 61 57 47 42 37 21 15 20 19 30 39 17 7 7 5 6 15 13 7 8 7 8 13 10 6 8 12 17 16 9 7 9 9 10 10 10 10 8 5 6 5 5 8 10 8 7 8 8 6 4 3 6 7 5 6 5 3 3 2 3 2 1 4 3 6 4 6 8 6 6 6 7 8 6 4 5 5 4 5 7 9
60 60 59 61 60 60 63 55 41 36 36 27 16 22 25 24 38 37 15 6 2 1 7 15 12 7 11 9 5 8 8 4 2 10 17 15 10 9 7 7 9 11 14 13 8 5 6 4 4 8 10 9 7 6 7 8 5 3 5 7 9 10 6 6 8 6 4 3 2 3 2 6 4 6 10 5 4 6 4 7 9 6 4 5 5 5 5 5
63 61 63 63 60 65 56 31 27 36 28 17 21 31 29 32 37 25 10 5 1 0 8 12 10 9 13 8 4 7 8 3 1 7 14 12 8 9 7 5 4 8 14 11 6 2 3 2 3 7 11 10 7 6 7 8 5 2 4 5 9 10 9 11 10 5 3 3 3 4 5 5 5 4 9 5 7 7 3 5 8 6 5 5 6 5 5 5
63 63 66 63 66 66 38 17 31 36 19 18 31 36 35 39 31 11 3 4 2 5 7 6 5 11 13 7 7 10 7 6 3 4 9 7 4 5 7 7 4 7 11 8 5 2 2 3 3 6 9 9 7 5 7 7 7 3 4 6 11 11 10 11 9 4 3 3 2 3 4 3 4 5 6 3 7 6 5 7 7 6 6 5 5 5 5 6
64 66 67 64 70 59 30 28 37 25 19 31 39 38 38 34 18 5 4 4 3 5 5 3 3 10 9 4 6 4 4 10 9 4 6 4 3 3 5 9 7 7 7 8 8 1 1 6 6 6 8 7 6 4 5 8 6 4 4 7 9 10 9 8 7 4 2 3 1 4 2 2 5 6 4 3 6 6 8 10 9 7 7 6 6 5 5 5
65 67 65 67 63 39 25 36 32 18 28 41 38 34 30 20 8 1 3 4 4 4 5 5 5 7 5 4 4 2 4 8 6 5 5 2 3 1 4 8 8 6 2 4 7 2 2 5 4 5 6 6 5 2 4 6 4 4 4 7 6 6 6 6 6 5 4 3 4 7 2 2 5 5 2 2 3 7 9 9 8 7 7 6 6 5 5 4
66 64 65 68 50 27 27 31 26 26 34 39 34 27 19 11 5 4 4 5 5 3 4 5 4 7 10 7 3 3 5 3 3 7 5 2 2 1 1 3 5 5 4 4 3 2 3 1 0 2 3 4 5 3 2 4 6 6 7 8 7 6 5 4 3 5 4 2 6 6 1 3 2 5 3 4 4 7 7 5 5 6 6 6 6 6 6 5
65 62 67 62 38 29 28 20 27 36 33 34 30 19 13 5 2 5 7 5 5 3 4 5 5 8 14 13 5 4 5 3 7 12 7 3 3 2 3 3 4 4 3 4 2 3 4 3 1 0 1 1 5 4 3 2 5 7 6 6 5 4 4 4 4 3 3 4 6 4 1 3 3 6 5 5 6 6 8 7 8 9 7 7 6 6 6 5
63 62 65 50 28 30 24 19 37 40 31 34 26 11 8 5 4 4 5 6 5 5 5 8 9 10 13 13 7 5 5 3 8 12 11 7 4 5 6 6 6 6 6 5 2 2 4 3 3 3 2 1 4 4 4 4 4 6 6 7 6 2 2 1 2 1 3 5 3 2 1 2 5 7 7 7 7 6 7 8 10 11 9 7 7 6 6 5
62 62 56 37 24 26 23 29 41 35 31 34 19 5 5 7 7 5 5 7 6 8 9 10 13 15 14 11 6 5 5 4 9 11 10 8 5 5 5 5 7 7 5 5 4 2 1 4 4 3 2 1 3 4 3 1 1 5 7 6 5 4 3 3 4 1 2 4 3 2 1 2 4 6 7 8 7 6 6 6 8 10 10 8 7 6 5 5
61 59 44 28 25 23 27 40 41 33 32 25 10 6 7 8 7 5 7 6 5 9 10 10 14 15 13 9 7 7 5 3 8 10 10 8 7 7 6 7 10 7 4 4 4 4 4 2 2 1 0 1 1 3 5 6 5 4 5 6 6 5 5 5 4 3 3 2 2 2 1 4 3 3 6 6 4 4 3 2 5 6 6 7 6 6 6 5
58 49 32 25 26 25 33 43 38 34 29 13 6 7 9 10 6 5 7 5 6 9 9 12 15 13 9 6 6 8 4 3 7 8 9 10 9 10 7 7 11 8 7 7 4 4 6 3 4 2 0 1 1 2 2 7 4 3 3 6 4 5 5 4 3 5 5 1 1 2 3 4 4 4 5 2 3 4 4 5 7 6 5 7 6 6 6 5
49 36 26 23 24 28 37 39 35 33 21 8 7 8 7 8 6 7 8 7 9 12 14 14 11 10 8 3 5 9 3 4 9 7 6 8 8 10 9 7 10 9 8 7 3 3 6 2 4 3 2 1 1 3 2 3 4 1 3 4 5 4 7 5 2 1 4 2 3 2 3 4 3 4 4 2 2 1 2 3 6 6 6 7 6 5 6 5
37 27 20 17 22 29 34 35 35 28 12 5 9 9 5 3 4 7 8 10 14 16 16 12 7 9 10 6 8 11 6 5 9 8 7 7 6 10 11 8 9 10 8 6 2 3 6 1 4 2 2 2 1 0 3 2 4 5 3 6 3 3 4 5 2 2 4 2 3 2 4 4 1 2 4 3 4 6 4 4 5 5 6 7 6 6 6 6
29 23 13 12 22 26 29 35 32 18 4 5 9 7 3 1 2 7 10 13 16 16 14 10 7 8 10 10 11 12 11 9 9 8 8 7 5 9 13 8 8 11 9 8 4 2 5 3 3 1 1 3 3 3 1 2 2 4 4 4 4 3 1 2 3 2 2 3 4 3 3 3 4 4 4 5 8 9 8 6 6 7 8 7 6 6 6 6
23 16 6 11 23 24 30 35 24 9 3 6 7 5 3 2 2 8 14 15 14 14 12 9 8 7 8 10 10 12 12 9 10 8 6 7 3 7 14 8 6 11 10 8 6 3 4 4 2 2 2 2 3 2 4 2 1 2 1 2 3 3 4 3 3 4 4 4 4 2 1 3 6 6 7 10 12 12 10 9 9 10 9 8 7 7 7 7
13 7 4 15 23 26 32 27 12 5 6 7 6 3 3 3 2 8 17 17 11 8 8 9 10 9 9 9 9 11 8 6 11 7 4 7 3 5 12 8 7 10 7 6 6 4 3 3 3 1 3 1 1 1 5 6 3 1 2 3 1 1 3 2 2 3 4 4 3 2 2 5 6 4 8 11 11 11 11 11 10 9 9 8 8 8 8 7
6 5 5 17 25 29 29 16 7 8 6 5 4 2 2 3 3 8 14 15 9 3 5 10 10 8 9 10 10 11 7 6 10 6 2 8 5 3 9 9 9 10 6 5 5 4 2 3 5 3 0 2 3 3 2 4 4 3 4 6 6 3 4 3 3 2 2 3 4 5 3 7 6 4 6 8 8 8 9 10 9 8 9 9 8 9 8 7
4 4 6 19 30 29 21 9 7 7 4 5 4 2 4 4 5 7 9 11 9 3 4 6 6 7 8 8 9 9 7 6 10 7 3 6 7 3 6 9 11 11 8 4 4 4 3 4 5 2 2 4 4 3 1 2 2 2 2 3 4 4 4 5 5 4 1 1 2 4 2 6 6 4 4 5 6 6 7 9 8 7 9 8 8 8 7 7
3 4 10 22 29 22 12 8 8 5 3 4 2 2 3 3 5 6 5 8 7 4 5 4 6 8 7 7 9 9 8 6 7 7 4 5 7 2 3 10 13 12 8 4 3 3 4 4 4 2 1 2 4 3 2 1 2 2 3 3 4 3 3 5 5 4 2 3 2 2 3 6 6 5 4 5 5 4 6 8 8 7 7 7 8 8 7 7
3 4 7 17 20 12 7 8 10 9 5 3 4 3 1 2 4 6 8 9 6 5 6 5 7 8 6 8 11 11 11 6 4 6 4 5 6 2 3 9 15 13 7 5 6 5 2 3 4 4 2 2 3 2 2 2 2 2 3 2 3 4 5 3 2 3 1 4 6 5 5 6 6 5 4 5 5 1 5 7 8 8 7 7 8 7 8 8
5 3 4 7 8 3 3 4 7 9 6 5 7 7 4 3 1 3 7 6 2 5 6 5 6 7 6 9 9 8 9 6 5 6 3 3 3 4 4 6 13 12 7 5 8 6 3 4 4 5 6 5 5 5 4 3 2 1 1 3 4 6 8 5 2 3 3 4 5 6 6 7 6 5 5 5 4 1 5 6 6 7 8 8 8 8 8 8
6 4 4 4 1 1 1 1 2 6 6 6 7 5 6 5 1 4 5 3 1 4 5 3 6 8 8 11 10 8 7 3 3 6 5 4 2 2 3 0 4 5 4 7 10 6 4 3 5 8 10 10 9 6 5 7 6 5 7 8 9 8 9 7 4 4 5 3 4 6 7 7 7 5 5 6 3 3 5 6 7 7 8 8 8 8 7 7
3 4 7 7 3 3 3 3 2 5 6 7 6 4 6 8 4 2 4 1 2 4 5 2 6 9 11 13 12 10 8 4 5 8 7 5 2 1 1 4 4 2 1 7 9 6 4 3 6 9 10 8 8 6 8 11 11 12 12 11 9 7 7 8 6 8 5 4 5 8 7 7 7 6 7 7 5 5 6 8 9 8 8 7 7 8 8 7
1 3 4 2 3 6 7 5 5 7 7 6 4 5 8 10 7 4 1 2 1 3 4 2 7 13 16 16 12 9 8 5 5 8 7 5 4 3 2 4 3 3 3 5 5 4 5 5 5 7 6 3 5 7 10 11 10 11 12 13 12 10 10 10 11 10 7 6 10 12 10 10 8 7 9 8 8 8 9 8 6 5 7 7 8 9 9 9
2 3 0 3 2 5 7 5 6 8 9 7 4 5 11 13 10 5 2 3 2 1 3 6 9 11 14 16 12 9 10 9 7 7 6 6 6 5 3 2 0 3 4 5 3 2 4 3 3 5 5 1 1 4 9 10 8 8 10 12 13 13 14 15 15 14 11 11 13 12 9 10 8 8 9 8 7 6 4 4 4 6 8 9 10 10 10 11
2 2 1 2 3 6 6 5 6 8 7 6 5 4 8 12 11 5 2 4 6 3 3 9 11 9 10 12 11 12 15 14 12 9 8 9 6 4 4 4 3 2 3 3 1 1 2 2 1 4 4 1 3 3 4 7 7 7 7 9 10 11 13 14 14 14 10 9 11 8 7 10 6 7 8 7 4 4 4 6 8 8 9 10 10 11 11 12
0 1 1 4 3 5 7 4 5 7 6 5 5 5 7 10 10 7 3 1 5 6 5 9 11 7 7 8 9 12 12 10 12 14 14 14 11 7 4 5 8 8 3 2 2 1 2 2 1 5 4 2 4 4 3 4 4 3 5 8 12 13 12 13 12 11 9 10 11 8 8 11 5 6 7 6 5 6 7 10 9 7 8 11 12 13 13 13
2 2 1 4 3 1 5 5 5 7 7 4 5 5 6 7 7 8 5 4 3 5 8 11 12 7 6 8 8 9 9 9 10 10 9 8 7 6 4 6 11 11 7 5 2 1 4 5 2 3 4 2 5 2 3 6 4 4 7 10 15 14 11 9 8 9 10 10 9 9 12 11 4 6 8 5 6 8 10 8 8 8 9 11 12 13 14 14
Wind_Direction
218 215 210 206 202 198 198 196 197 198 196 197 197 195 194 192 192 194 193 193 197 198 196 198 198 200 198 198 196 190 193 191 191 190 193 214 214 216 229 224 222 226 254 326 343 338 325 328 318 304 296 285 202 234 250 189 87 76 97 147 237 225 200 225 186 179 157 151 173 180 144 126 138 146 135 68 74 95 82 64 56 51 47 91 130 144 147 152
218 216 209 202 200 198 197 196 196 198 197 197 197 195 192 190 191 192 191 192 194 197 196 195 196 198 198 199 197 191 188 184 187 200 207 213 213 211 217 214 201 193 190 338 350 343 326 315 310 311 301 248 243 213 233 228 133 129 146 161 226 215 213 261 179 162 140 150 162 172 162 139 159 167 132 113 121 113 92 64 65 75 67 92 123 139 144 153
217 213 211 204 198 197 196 197 197 198 197 198 198 196 193 190 190 190 190 190 192 195 195 195 196 195 197 198 197 194 183 165 191 232 216 209 210 209 211 212 188 167 171 335 336 320 304 295 305 312 270 243 263 182 175 250 191 170 144 166 243 225 228 337 330 163 148 149 150 170 175 145 168 163 131 140 144 137 132 137 109 113 131 123 129 141 145 154
218 211 211 207 198 196 196 197 199 198 198 198 197 197 196 191 189 189 189 189 190 193 193 194 194 194 196 194 196 191 163 93 242 228 219 208 207 207 209 213 205 192 194 286 294 291 298 296 302 302 256 256 269 141 166 231 204 193 154 185 241 199 134 323 321 146 141 140 144 155 134 135 176 155 129 135 135 176 186 179 164 155 156 149 147 148 150 157
219 211 209 205 198 196 194 196 198 198 198 198 197 198 196 192 189 186 186 188 188 191 192 192 192 192 192 190 192 178 138 70 227 213 221 214 207 205 206 210 209 212 213 268 274 285 302 300 298 287 251 243 255 130 210 225 163 217 202 193 236 163 136 263 298 358 138 129 122 130 126 145 163 135 135 136 147 213 209 193 166 157 158 156 156 154 155 160
217 211 206 204 200 196 194 194 197 197 198 198 196 197 195 190 187 183 183 186 186 188 190 190 189 188 187 184 183 170 154 206 204 193 210 213 211 206 204 204 202 206 209 233 263 292 302 298 289 260 223 223 226 205 233 222 152 207 238 192 290 178 150 210 298 316 135 123 130 145 149 141 126 144 148 133 172 206 208 204 162 156 157 154 153 156 161 167
216 208 203 203 201 197 193 193 195 196 197 196 194 194 192 188 184 180 179 183 185 186 187 188 187 185 179 172 171 171 185 218 149 186 194 197 207 204 199 198 192 195 198 207 222 279 279 277 275 243 203 236 219 212 248 232 167 186 242 228 343 68 132 174 77 16 114 125 156 145 131 133 136 162 132 116 182 201 211 171 142 147 148 149 154 163 170 174
217 208 202 201 197 194 192 193 194 194 194 193 191 189 186 185 181 175 174 180 182 183 185 185 185 183 175 164 161 183 211 210 165 177 182 179 191 195 191 185 184 190 191 198 198 232 261 269 259 235 196 229 208 213 233 215 197 200 219 208 150 83 3 263 88 78 95 117 132 105 105 152 159 150 127 156 186 194 149 107 123 138 143 151 162 169 172 176
216 210 202 199 195 192 192 194 193 192 190 189 188 184 180 178 176 172 171 175 179 180 182 182 183 180 176 167 159 202 207 192 161 148 168 172 178 182 181 175 180 190 188 202 210 230 248 250 247 227 205 225 215 244 210 174 223 210 185 167 158 146 184 195 84 86 93 97 106 101 99 156 190 135 118 183 186 184 132 117 128 137 145 158 166 171 174 177
214 210 202 197 194 191 192 192 190 189 188 187 184 181 180 177 173 172 170 172 174 176 177 180 181 175 173 167 172 209 200 184 170 142 153 169 173 172 172 174 183 189 189 201 212 226 232 234 248 244 230 237 218 256 241 183 217 183 142 117 133 147 173 178 104 108 97 63 96 116 135 182 321 95 175 211 185 166 124 127 143 144 154 166 167 176 178 181
211 205 196 194 192 190 190 189 188 186 185 183 179 179 181 177 173 172 170 170 171 173 175 178 178 172 171 170 188 208 182 182 175 149 148 158 169 172 174 181 187 189 190 194 217 227 231 239 251 270 258 235 229 281 268 210 174 137 122 86 89 130 98 104 114 133 106 77 106 113 115 350 4 71 210 200 176 161 133 142 159 156 164 170 171 179 181 186
207 200 193 191 189 188 188 187 186 184 182 179 176 179 178 172 171 170 168 167 169 173 174 177 176 172 170 178 204 203 164 176 167 148 154 154 157 172 182 188 192 196 193 190 219 231 235 243 250 263 253 214 214 288 277 241 144 137 128 106 140 66 75 136 143 161 113 128 184 117 76 325 290 233 232 180 161 154 140 156 173 171 173 172 174 178 183 189
204 199 194 191 187 186 185 184 184 182 179 175 174 174 171 167 167 168 168 167 169 173 174 176 174 171 171 185 213 209 178 179 174 165 179 183 156 161 181 190 196 205 203 199 216 230 241 248 245 247 245 185 220 243 315 307 137 145 129 122 142 64 87 214 182 128 104 128 217 119 109 275 247 242 239 167 153 143 144 174 187 188 186 175 176 176 185 189
200 197 193 189 186 184 182 181 182 180 176 173 171 168 166 163 164 165 164 164 167 172 172 170 167 167 183 201 234 215 195 185 188 190 196 193 165 160 172 178 192 206 204 208 222 236 255 254 241 245 240 182 211 283 345 333 145 140 121 125 140 135 221 251 183 132 122 215 88 101 158 258 265 250 223 177 158 151 162 191 192 197 200 184 181 177 184 190
197 195 191 187 184 182 180 181 180 177 173 169 165 162 161 159 159 160 158 159 163 166 164 161 156 148 188 270 273 201 179 174 188 193 196 188 163 156 166 172 188 198 200 214 226 244 262 244 222 243 249 210 107 42 349 312 164 136 140 191 182 157 208 276 233 152 143 219 77 106 186 267 272 244 226 191 159 156 170 193 196 198 200 189 185 181 184 194
194 193 189 185 182 180 180 180 178 175 168 162 159 155 153 151 151 151 150 149 154 160 157 153 150 100 125 288 170 162 164 178 187 186 190 185 164 152 166 174 192 200 207 221 230 252 259 220 203 218 209 181 113 119 64 145 220 190 137 173 190 159 172 236 275 201 153 142 120 133 169 255 260 229 233 214 166 162 173 196 201 198 199 189 183 185 185 192
191 189 186 182 180 178 177 176 172 167 160 154 152 148 145 145 144 141 138 137 140 147 146 144 147 64 35 179 152 165 177 183 181 174 177 180 166 155 162 167 201 207 212 227 235 257 251 194 200 221 171 171 153 123 130 193 210 219 116 152 193 161 157 173 275 248 149 136 192 173 166 243 268 230 218 223 186 174 191 210 207 198 196 192 186 186 187 191
187 185 182 179 176 174 174 171 165 158 153 149 145 142 140 139 137 130 125 124 121 123 123 129 145 79 261 200 172 179 175 166 168 168 168 169 164 158 159 158 183 190 195 225 236 241 221 195 183 194 196 200 191 130 156 204 190 170 156 147 168 149 160 176 204 214 160 150 188 175 207 250 279 274 231 238 207 185 205 211 201 196 193 191 190 191 194 196
182 182 180 176 174 172 169 166 160 153 149 144 136 131 127 124 123 121 126 127 120 121 137 176 178 143 205 187 180 167 161 156 158 163 162 160 162 161 161 163 165 165 173 202 214 203 185 135 168 194 205 202 192 150 169 201 175 170 173 148 151 157 195 201 215 237 156 140 188 186 208 232 247 261 247 246 221 199 223 221 201 199 193 190 191 195 198 198
179 178 176 174 171 168 165 161 157 152 147 139 132 126 121 123 117 120 139 148 164 174 135 172 189 298 52 159 159 149 150 147 145 158 161 160 157 154 162 167 153 163 183 183 194 201 166 163 202 203 192 194 184 159 183 213 183 166 162 150 160 155 192 237 235 289 126 132 213 200 206 235 229 238 240 230 210 210 235 234 220 208 193 192 192 195 199 203
177 175 174 171 167 164 162 158 155 153 150 144 140 135 147 154 149 163 158 155 199 222 129 171 192 260 344 156 149 141 136 134 130 154 163 160 151 147 172 182 158 180 192 179 182 177 170 196 213 197 180 186 184 176 204 232 213 176 170 168 187 166 180 243 203 278 30 143 233 203 206 250 241 238 244 208 184 216 222 214 219 216 204 197 191 197 199 197
175 174 171 166 163 162 160 157 156 154 151 150 151 154 165 159 154 158 149 121 198 220 104 166 190 271 316 171 156 148 134 133 140 161 169 163 156 157 177 180 170 185 190 186 183 170 192 216 211 200 186 176 183 192 211 230 214 195 185 170 201 197 159 348 338 331 28 142 256 222 199 249 257 248 247 200 188 215 213 203 206 201 201 202 194 198 189 170
172 169 165 162 160 160 159 158 156 154 153 159 164 166 162 156 130 138 129 87 174 203 66 158 187 235 254 199 174 160 147 150 155 174 181 167 161 168 170 173 175 182 195 207 195 172 201 220 203 199 192 171 183 203 210 228 218 186 184 176 198 192 157 199 280 318 38 118 174 108 187 269 279 270 260 217 202 217 214 212 216 201 198 205 199 191 180 172
168 163 159 158 157 158 158 156 155 156 159 165 166 157 160 156 142 136 115 67 149 199 183 179 189 194 200 206 192 172 154 144 153 171 179 170 156 160 167 168 168 180 203 214 203 181 211 221 173 180 196 183 179 205 201 205 239 209 184 184 181 178 175 175 167 135 25 16 91 85 23 305 258 240 255 233 203 222 218 207 218 220 197 185 161 160 176 179
163 160 157 157 157 156 155 153 156 160 160 164 161 154 161 160 149 139 113 77 103 321 162 179 201 200 189 191 194 172 140 99 151 170 175 176 161 150 166 170 168 186 198 210 208 185 220 228 137 167 197 191 180 206 195 182 216 242 200 194 175 168 151 123 128 106 59 331 278 112 62 295 271 233 241 229 185 210 212 193 200 207 191 167 163 170 174 178
160 159 157 157 156 153 152 153 163 160 156 169 164 157 161 162 158 146 106 77 36 114 144 169 199 189 177 186 183 143 130 140 255 155 169 188 179 153 167 170 159 184 189 206 219 182 235 234 132 177 190 190 187 204 204 172 160 221 234 190 153 142 127 132 138 112 123 221 268 113 148 257 311 278 244 221 194 211 222 217 219 219 210 194 195 200 180 174
159 158 157 157 156 155 155 155 161 159 162 176 160 157 164 167 174 186 93 92 151 163 161 171 190 175 172 187 170 150 154 160 103 134 178 205 195 151 174 177 150 172 178 198 218 208 208 179 183 190 178 185 185 193 209 160 136 216 236 143 131 131 136 148 142 120 167 182 355 37 127 207 290 278 263 186 178 220 248 239 246 241 223 209 201 199 178 181
158 158 157 158 159 159 158 152 158 165 171 166 157 161 172 174 187 216 118 141 157 144 160 174 154 163 168 162 152 150 159 145 131 179 200 206 196 153 179 184 162 156 171 197 204 236 184 180 197 184 164 184 190 197 199 142 133 230 205 135 135 137 141 145 129 108 113 113 328 297 139 162 266 277 314 94 160 222 240 232 237 229 218 204 189 178 166 176
156 157 157 158 159 160 155 155 161 164 160 160 161 169 176 178 185 144 119 156 144 132 143 142 139 155 156 123 124 116 140 147 148 165 157 167 210 162 173 183 159 129 94 193 187 226 232 191 196 172 158 184 186 203 194 141 136 200 140 101 85 86 99 106 112 102 71 99 228 251 192 156 267 281 319 82 184 223 230 235 231 218 211 193 177 169 162 152
157 157 156 157 158 155 150 155 160 156 157 164 169 168 161 162 170 153 182 172 135 149 149 142 160 163 157 145 139 152 143 139 116 129 139 176 166 91 145 146 122 108 48 57 118 258 267 243 200 159 166 183 154 139 193 152 138 131 98 77 61 44 53 59 60 89 91 249 244 247 223 133 257 278 228 196 217 206 206 234 224 206 203 189 176 171 169 151
157 157 158 159 158 154 148 152 164 160 162 168 165 155 145 154 193 158 173 161 122 142 152 143 154 157 161 157 154 160 132 93 132 143 161 186 156 170 158 127 119 133 102 80 77 324 344 3 335 278 259 182 111 80 16 37 114 103 91 102 89 23 17 27 3 52 137 242 258 260 279 130 199 261 241 237 251 205 186 204 201 190 189 185 181 178 175 167
156 156 158 159 155 155 155 160 164 162 166 166 157 150 157 158 190 173 151 145 148 177 171 154 157 162 166 159 146 149 127 115 158 158 161 164 175 190 180 177 171 170 178 162 133 14 6 330 312 340 302 166 114 93 33 9 48 87 117 124 109 60 26 55 272 256 204 241 269 278 280 183 227 252 252 261 264 231 210 207 189 179 179 181 181 176 171 165
155 156 156 156 149 154 158 158 161 163 163 160 154 171 181 159 177 169 137 163 176 173 167 160 162 161 158 151 146 150 126 141 172 164 159 157 165 201 221 204 167 157 178 165 128 97 6 308 317 354 322 239 140 143 147 193 121 126 146 140 131 129 111 191 237 267 230 249 277 284 272 243 264 267 252 247 250 259 253 213 177 170 172 172 169 157 149 152
155 156 152 148 145 148 156 159 165 164 155 155 165 182 169 168 173 131 140 181 161 147 154 149 148 150 151 153 162 158 117 133 173 160 156 161 168 197 221 205 179 148 121 150 161 158 157 247 268 192 225 315 205 175 159 150 146 167 164 136 143 154 148 184 206 190 205 253 285 281 243 188 199 258 256 250 269 314 327 153 138 139 147 145 140 129 131 140
154 153 143 136 139 146 158 163 167 162 153 157 186 175 169 172 169 139 153 167 130 133 138 137 140 144 152 151 160 169 142 145 177 162 165 177 180 188 190 193 188 159 140 170 185 165 158 190 282 287 284 121 207 260 126 119 143 225 144 114 157 175 144 147 176 172 164 139 261 235 230 207 202 264 276 307 358 20 46 89 110 118 130 133 138 143 144 146
148 144 136 131 135 149 163 166 164 162 161 170 174 180 190 177 167 160 159 151 145 142 134 138 146 148 152 137 158 183 176 136 168 169 179 188 187 189 186 185 184 170 163 167 156 163 160 173 312 334 10 23 205 270 338 122 169 193 119 161 205 160 118 119 175 131 101 135 237 209 243 286 311 278 280 354 9 349 61 102 132 145 149 147 159 168 161 158
141 137 134 129 139 156 168 168 164 164 171 193 182 183 182 174 167 146 138 140 142 140 138 145 165 162 159 158 170 183 168 138 171 177 175 182 193 194 190 192 186 177 172 159 154 191 154 119 320 17 64 287 243 156 360 30 131 120 156 198 188 97 89 110 138 21 66 174 262 219 214 268 283 247 291 311 256 243 230 200 172 168 168 166 176 181 172 164
134 133 123 128 149 159 165 166 165 163 177 207 192 183 143 134 177 133 126 137 139 142 148 153 169 175 171 168 172 178 167 160 180 179 170 179 201 190 183 193 192 181 174 158 163 193 134 115 307 332 200 276 340 83 103 342 87 133 180 180 119 131 201 125 141 161 154 203 269 271 237 239 205 214 248 238 232 231 224 213 197 192 187 180 179 178 171 159
126 129 114 147 157 157 158 162 162 154 198 199 186 190 154 141 189 144 137 142 144 149 158 161 163 168 173 168 163 170 172 170 172 173 178 183 213 197 183 185 187 183 179 162 164 180 131 126 230 286 274 263 1 57 176 223 344 51 85 88 81 136 169 172 163 155 159 193 234 270 306 256 229 213 194 207 220 212 204 204 202 199 192 184 177 172 171 167
129 127 125 154 157 154 153 154 153 167 207 192 173 202 164 137 182 158 148 146 146 152 162 169 166 158 160 161 156 166 171 161 167 176 190 174 179 210 191 183 173 176 169 142 149 162 131 120 168 264 339 150 182 216 187 184 180 129 125 158 191 118 129 161 184 137 133 161 194 195 252 263 251 207 189 209 221 210 198 198 202 198 190 187 180 174 174 172
136 118 128 153 154 152 148 146 168 187 194 176 173 232 165 132 121 149 152 147 140 126 143 156 162 153 152 155 160 169 158 144 168 176 178 173 164 200 197 182 165 166 148 123 148 161 137 113 140 152 138 177 224 259 210 196 185 160 170 184 185 159 127 150 221 237 121 145 176 166 218 269 258 200 203 224 231 219 202 194 195 192 188 188 183 179 177 169
127 126 133 150 156 155 150 158 186 180 177 178 180 158 147 136 121 140 153 146 141 110 105 131 145 143 151 157 156 161 149 148 176 174 165 181 171 181 200 171 155 161 153 142 170 155 110 101 112 127 197 208 253 275 242 228 173 132 190 189 160 145 125 144 199 232 167 167 171 132 175 273 262 224 225 243 249 238 209 190 186 188 186 182 179 177 171 163
123 109 116 144 161 166 161 166 171 173 214 199 154 90 126 126 126 140 151 148 150 142 123 131 149 149 156 154 147 155 153 150 178 171 141 169 173 202 224 168 154 158 159 157 177 144 97 99 105 82 320 311 313 312 319 314 123 148 228 182 150 167 141 144 175 172 159 193 160 136 235 267 275 271 257 264 273 250 206 188 178 177 180 177 174 171 164 160
126 90 96 143 164 178 179 173 172 180 199 160 116 119 96 79 126 147 156 156 155 146 140 147 157 153 149 149 153 164 162 151 174 171 133 160 176 338 311 176 160 160 174 185 177 160 119 126 121 110 96 4 336 303 291 273 194 199 225 166 132 115 104 120 153 106 143 215 162 157 234 252 270 299 315 323 336 281 199 194 175 171 176 176 172 169 164 159
132 91 56 133 155 179 200 184 171 171 168 133 137 151 130 72 57 122 137 146 146 133 137 150 150 131 121 139 144 156 162 153 165 171 130 137 173 352 333 194 169 169 188 177 156 140 128 154 142 132 153 181 200 207 207 191 182 220 207 162 158 146 145 167 166 128 217 233 154 161 225 249 281 317 326 330 351 141 193 192 182 181 179 175 172 171 168 163
141 124 116 129 114 311 256 313 151 164 161 142 147 158 135 123 23 13 83 116 135 108 111 129 126 112 126 144 142 157 171 140 135 160 144 141 172 325 332 209 153 163 163 149 148 129 115 172 178 166 181 192 191 194 162 137 147 192 200 188 187 186 176 163 140 170 198 189 178 211 226 242 275 291 279 278 262 218 201 181 185 193 186 180 176 169 164 162
128 154 157 151 156 199 225 264 208 182 172 156 159 165 140 136 143 23 46 85 173 111 81 77 139 140 155 155 151 166 168 111 119 152 146 140 149 343 23 60 66 40 83 151 157 125 116 195 200 184 197 194 170 167 160 154 172 194 196 191 190 186 166 160 189 208 171 134 228 243 226 231 250 242 239 245 227 223 222 201 197 193 183 177 165 156 156 157
117 167 179 148 138 178 194 204 190 178 165 154 146 137 139 145 153 154 91 39 125 117 77 95 172 164 163 160 155 160 153 120 141 161 148 135 135 117 44 45 56 359 16 153 162 111 132 191 204 186 196 181 137 158 168 169 182 191 190 191 188 178 170 182 210 212 164 162 230 236 219 223 228 216 229 228 201 204 211 202 191 166 161 161 156 161 168 169
65 110 186 354 48 153 154 132 145 163 162 150 137 145 156 159 158 155 123 96 126 170 104 148 181 173 162 160 150 152 165 163 171 184 164 139 141 134 108 108 162 5 48 132 156 91 139 184 201 165 164 149 102 165 176 178 185 192 197 195 187 184 188 195 211 214 197 203 229 235 237 245 231 207 232 239 207 201 186 155 153 160 169 169 168 176 182 183
66 105 148 57 83 131 131 108 128 154 164 151 147 161 160 158 156 148 112 135 161 186 139 154 171 166 160 162 154 169 186 175 164 173 158 140 150 163 157 170 174 71 62 123 145 15 143 191 187 113 121 283 346 48 146 173 180 192 205 198 186 189 199 207 217 219 209 223 244 255 272 271 241 188 226 247 191 147 142 173 193 188 176 172 176 187 193 195
329 246 148 106 99 134 146 133 119 142 167 166 160 167 160 163 163 141 74 15 157 157 147 148 150 141 147 161 166 179 186 166 154 164 163 160 167 171 169 174 159 144 128 128 123 65 104 147 45 82 118 256 341 34 76 81 96 184 221 200 187 189 201 210 216 213 200 215 239 249 255 258 226 162 214 227 155 161 193 202 205 195 177 178 185 195 200 201
341 312 56 97 74 111 152 141 127 155 177 172 154 155 152 163 165 139 112 2 34 125 141 143 140 133 144 170 196 198 176 153 149 156 155 148 140 124 120 145 151 148 146 140 130 123 134 134 88 100 141 266 332 19 107 70 60 252 239 201 191 195 202 208 225 228 211 204 216 225 235 242 194 167 222 211 159 197 219 206 200 199 191 191 194 198 203 205
Height
714 716 718 721 725 728 732 735 739 741 744 747 750 753 756 760 764 767 770 772 776 779 782 785 787 790 792 794 796 798 799 800 802 804 806 807 810 813 813 814 816 817 819 819 818 819 818 818 817 817 818 818 818 817 816 815 815 820 829 836 838 836 832 822 820 821 820 825 825 823 822 824 830 828 825 827 830 834 836 838 837 836 836 835 836 839 843 846
712 714 716 719 722 726 730 733 737 740 743 746 749 752 755 758 762 765 768 771 774 778 781 784 786 789 791 794 796 798 799 801 803 803 803 806 810 812 814 815 817 818 819 820 821 822 822 821 819 819 820 820 819 817 818 816 816 823 829 835 834 829 824 817 816 815 816 822 822 822 822 822 826 827 825 830 836 835 838 843 842 842 842 840 840 842 844 846
710 712 714 717 720 724 728 731 734 738 741 745 748 751 754 756 760 763 766 769 772 776 780 783 786 788 791 794 796 799 800 802 804 802 801 805 808 811 813 815 817 818 818 820 822 824 825 823 822 822 822 822 819 818 820 818 818 822 826 833 829 821 819 816 815 813 812 816 820 822 822 822 824 824 824 830 836 836 838 843 844 847 846 844 843 843 845 846
707 709 712 715 718 721 725 729 732 735 739 743 746 749 753 755 758 762 765 768 771 775 778 782 785 787 790 793 797 799 801 806 804 797 799 803 807 810 812 814 816 817 818 820 823 824 825 823 823 823 823 823 819 818 821 819 819 821 824 828 823 818 819 817 815 813 811 813 817 821 822 824 824 823 825 829 836 838 836 834 835 841 843 843 844 844 845 846
704 706 709 713 716 719 723 726 730 733 737 740 743 747 751 754 757 760 764 767 770 773 777 781 784 786 790 792 797 799 804 812 801 792 798 801 805 809 811 814 816 817 818 820 822 824 824 823 824 824 823 823 821 820 820 816 816 821 821 821 818 817 819 817 815 814 812 813 817 821 822 823 822 823 826 828 833 834 830 828 828 833 837 839 841 843 845 847
702 704 707 710 713 717 720 724 728 731 735 738 742 745 749 753 756 758 762 765 769 772 776 779 782 786 789 792 797 798 804 807 795 791 797 799 804 807 809 812 814 816 818 820 822 824 825 824 825 826 823 822 822 821 818 813 815 822 821 818 817 815 815 816 815 814 812 813 818 820 820 820 822 825 825 825 828 827 824 824 826 829 833 836 839 842 844 846
699 702 705 708 711 715 718 722 726 729 733 736 740 744 748 751 755 757 760 764 768 772 775 778 781 785 789 793 797 798 800 797 791 792 794 796 802 805 808 810 812 816 818 820 822 824 825 825 827 825 822 822 821 819 817 813 814 821 822 817 817 815 814 816 815 814 812 813 817 817 818 820 823 825 824 825 826 824 823 822 823 828 832 836 839 840 842 843
697 700 702 705 709 713 717 720 724 727 731 734 739 742 746 750 753 755 758 763 768 771 774 777 780 783 788 791 795 800 798 794 791 792 793 796 800 802 806 808 811 814 816 819 820 823 826 825 825 822 822 821 817 817 815 815 817 819 820 817 817 816 816 816 815 815 813 814 816 817 820 823 823 823 824 826 826 824 824 823 824 828 832 835 838 839 841 842
694 697 699 703 707 711 715 718 722 725 729 733 737 741 745 748 752 754 757 762 766 771 774 776 779 783 788 790 794 799 793 790 792 792 793 796 798 800 803 806 810 813 815 818 819 824 826 824 821 819 820 818 814 815 813 818 820 815 816 816 817 817 817 817 816 815 814 815 816 819 824 825 823 823 825 826 825 825 825 825 827 830 833 835 837 838 840 841
690 693 696 700 704 709 713 717 720 723 727 732 736 740 743 746 750 753 756 761 765 770 773 776 779 783 787 789 795 796 788 788 792 791 793 796 797 798 801 804 808 811 814 816 818 822 823 820 817 815 816 814 813 813 812 817 815 810 814 816 817 818 817 817 817 815 815 817 817 820 825 825 823 825 827 826 824 825 826 828 829 830 833 834 835 837 838 839
686 690 693 697 701 706 710 715 718 722 726 730 735 738 741 745 749 753 756 760 763 769 773 776 780 783 786 788 792 791 786 788 791 790 794 796 797 797 800 803 806 809 812 815 817 818 818 816 815 816 816 813 812 812 811 810 808 808 813 817 820 819 818 817 817 817 816 818 819 819 825 826 825 826 824 823 824 825 826 829 830 830 832 832 834 835 836 838
683 687 689 694 699 703 707 713 716 720 724 729 733 736 740 745 749 753 756 759 763 769 774 777 780 783 786 789 789 787 786 788 789 790 794 796 797 798 800 803 805 808 810 813 815 815 815 814 815 819 815 810 813 815 811 806 806 809 809 818 824 819 820 819 818 818 817 819 818 819 828 830 828 824 820 820 823 825 826 828 830 830 830 831 832 833 834 835
680 684 686 690 696 700 705 710 715 719 723 727 732 735 740 745 749 753 755 759 763 769 774 778 781 784 787 788 785 784 786 788 789 791 794 796 797 798 801 802 805 807 809 811 812 813 814 813 815 816 811 810 814 812 808 806 807 810 809 817 825 825 825 820 818 819 818 821 818 821 835 832 824 822 819 820 822 824 828 828 829 829 829 829 830 831 832 833
676 681 684 688 693 698 703 708 713 717 722 726 731 735 740 744 749 753 756 760 764 770 775 778 781 785 787 786 783 784 786 788 789 790 793 795 796 799 801 802 805 807 809 811 812 813 812 812 813 812 808 809 810 807 808 809 808 812 816 818 823 830 828 819 818 820 820 822 818 822 835 829 821 823 821 820 821 822 826 828 828 828 828 828 829 830 831 831
673 678 682 686 690 695 701 706 711 716 721 725 729 734 739 744 749 753 757 761 766 770 775 778 782 786 788 785 782 783 785 788 788 788 791 793 795 798 799 802 805 807 809 811 811 812 810 810 811 811 809 806 806 811 814 814 811 812 821 828 827 827 828 822 818 819 820 822 819 824 834 830 823 823 821 820 821 821 824 826 827 827 827 827 828 828 829 829
669 675 679 684 689 693 699 704 710 715 720 724 729 733 739 745 750 755 759 763 768 772 776 781 784 785 788 787 783 783 785 786 785 787 791 792 793 794 797 802 805 808 810 811 810 810 808 807 809 809 808 807 810 816 819 821 819 815 821 831 829 826 830 828 820 818 819 821 822 825 831 829 824 822 820 820 821 822 823 824 826 826 826 826 826 827 827 828
665 671 676 681 686 691 698 703 708 714 719 724 728 733 739 745 750 755 760 764 769 774 778 782 784 785 788 787 785 783 782 782 783 786 790 792 793 794 798 803 806 809 810 810 809 808 806 806 808 809 808 809 811 815 825 831 828 822 821 825 826 825 830 830 825 819 818 822 823 825 828 825 821 821 821 820 820 822 822 823 824 825 824 824 825 826 826 827
662 668 674 679 683 689 695 701 707 713 718 723 728 733 739 746 752 756 761 765 770 777 782 784 786 788 788 784 780 777 777 780 782 785 788 790 793 795 799 803 806 808 810 811 809 807 807 806 808 812 812 811 811 817 829 833 827 825 823 823 826 827 828 828 825 820 818 823 824 827 830 825 821 822 822 820 821 821 820 819 821 822 822 823 823 824 825 826
659 665 670 676 681 687 693 699 705 710 715 722 727 732 739 747 753 757 761 763 767 776 780 779 780 778 775 773 773 774 776 779 781 785 787 788 793 796 798 802 804 807 811 813 811 807 807 809 812 815 816 814 813 816 821 820 817 817 817 818 823 828 829 826 822 819 818 824 827 827 828 824 821 822 820 820 821 821 819 818 819 820 821 821 822 822 823 824
656 662 668 674 679 684 691 697 701 706 710 716 721 728 738 745 753 762 764 762 760 763 765 767 770 767 764 767 771 774 776 779 781 785 787 787 791 795 798 800 803 807 810 812 811 806 805 813 817 815 814 812 811 812 811 810 810 810 813 816 819 823 826 825 824 821 818 823 827 825 825 825 822 819 817 818 820 821 820 819 817 817 818 819 819 820 820 821
653 660 665 671 676 682 689 694 698 702 705 710 712 717 723 728 734 741 751 761 761 758 760 763 766 767 766 766 767 769 773 778 781 783 786 788 789 795 799 800 804 809 808 807 807 803 806 815 816 811 808 806 806 806 806 808 810 810 811 815 820 822 824 826 824 822 820 823 825 826 827 824 820 818 816 818 821 820 818 817 816 814 815 816 816 817 818 818
651 656 662 667 672 679 686 691 696 700 705 710 709 710 713 714 715 716 728 751 761 759 762 765 768 771 768 766 766 765 769 777 782 783 784 786 789 794 798 799 805 809 806 805 806 807 812 814 810 806 802 801 803 803 804 809 811 811 812 815 820 824 826 828 826 823 822 823 825 827 828 823 818 816 815 816 818 815 814 813 811 811 812 813 814 814 816 817
647 653 659 664 669 677 684 689 694 699 704 706 706 709 714 715 717 719 726 746 761 763 765 769 773 775 772 767 765 763 766 773 779 782 782 784 788 790 795 799 804 807 806 805 806 812 816 810 803 802 799 800 803 802 804 809 811 812 815 818 821 823 823 825 827 827 824 825 828 828 828 824 818 816 813 812 812 810 810 810 809 809 809 809 810 811 814 815
644 651 657 663 670 676 683 690 695 698 701 704 706 710 716 718 719 721 728 746 760 762 764 768 770 771 770 766 763 762 766 769 773 777 778 781 785 787 791 796 802 807 806 803 804 809 809 801 797 798 798 800 803 804 806 811 814 812 813 816 819 820 818 819 825 828 827 828 828 828 831 825 817 817 812 808 811 809 808 810 810 810 809 809 810 811 812 813
643 649 655 663 671 675 683 692 695 697 701 705 709 711 716 720 720 718 723 747 763 762 764 769 768 765 763 763 762 760 763 768 771 773 774 777 779 784 788 789 797 806 805 802 803 807 803 796 795 797 798 800 803 806 805 808 813 811 809 808 810 813 814 819 825 828 833 835 826 828 838 830 816 817 813 807 810 810 809 810 809 809 810 810 810 810 812 812
642 648 653 662 669 675 684 690 692 697 701 705 706 710 715 718 720 716 722 750 767 765 765 767 764 761 759 761 760 758 766 772 771 771 774 776 774 777 786 787 790 799 802 800 801 802 800 796 795 796 797 800 804 806 802 803 811 813 808 805 807 811 814 820 824 824 833 836 827 828 837 833 818 811 810 809 810 809 810 810 808 809 809 809 809 810 811 812
640 646 651 659 665 670 676 681 689 694 696 701 703 709 714 716 719 715 726 758 768 761 762 762 759 757 756 758 755 758 769 771 771 774 773 775 774 773 783 788 787 792 794 797 804 803 798 797 797 794 796 801 804 804 799 799 808 811 808 807 807 808 812 819 821 821 828 832 831 831 831 836 828 811 808 812 811 811 812 809 807 808 808 808 809 810 811 812
636 644 649 656 662 665 667 672 682 685 688 695 700 708 712 714 719 717 731 760 761 751 754 755 753 753 753 755 755 758 763 762 770 777 772 773 775 773 782 786 786 790 789 794 807 806 798 797 797 794 797 802 801 799 797 796 803 807 807 807 805 805 813 819 820 823 829 830 834 835 832 838 835 816 813 815 813 813 811 806 805 806 807 808 809 811 812 813
635 643 648 657 665 670 672 675 680 685 690 695 701 707 710 716 720 718 730 749 749 743 746 750 752 753 753 755 758 759 759 758 765 772 771 773 774 773 779 781 781 788 790 792 800 802 799 799 798 794 794 797 798 801 800 794 797 803 806 807 807 811 818 822 821 822 829 833 833 834 834 837 833 817 816 817 812 810 806 802 805 806 807 808 808 811 812 813
635 642 649 657 665 671 676 681 686 690 693 697 702 706 712 719 720 726 739 741 740 743 743 748 751 751 753 758 761 761 760 762 763 768 773 773 773 773 775 776 779 787 793 794 798 801 801 799 800 798 795 795 797 802 802 795 796 800 803 807 811 815 817 821 824 823 833 839 834 837 837 836 834 819 812 812 806 801 800 801 805 806 808 808 809 811 812 813
635 641 649 656 662 667 672 679 685 689 693 698 703 708 715 719 716 728 739 728 729 743 744 747 750 749 752 756 761 762 762 765 764 768 774 774 776 776 775 779 782 789 796 797 801 805 802 799 801 800 799 799 796 798 802 800 797 798 802 809 816 823 823 826 830 829 839 843 837 843 843 838 838 819 804 804 798 795 796 795 798 803 807 808 808 810 812 813
636 643 651 659 663 667 671 676 680 686 693 697 703 709 712 717 717 722 726 719 727 742 741 743 746 748 751 753 758 761 763 767 765 765 770 774 779 778 775 778 781 791 800 799 803 808 804 802 802 800 800 798 794 797 805 805 801 800 806 812 822 836 840 840 842 841 844 843 839 845 843 839 836 815 800 800 794 793 794 789 792 800 804 806 808 809 811 813
637 645 655 662 666 670 674 678 682 687 693 696 704 708 705 713 717 714 718 720 723 728 730 734 739 743 748 753 759 760 761 766 765 765 768 772 779 779 775 774 774 783 795 800 805 809 808 807 804 800 799 797 793 798 806 809 807 806 809 812 821 839 850 851 852 851 847 842 841 845 842 838 832 811 799 799 794 795 795 791 793 797 800 804 807 809 811 813
639 648 656 662 667 672 675 680 684 687 692 698 703 704 703 710 709 704 715 719 715 720 725 730 738 744 747 752 757 756 759 767 765 764 769 773 779 780 776 773 771 774 787 798 802 803 808 810 805 800 801 798 795 797 799 801 806 807 806 808 814 825 835 841 844 842 843 844 845 847 839 828 820 807 801 801 800 801 799 797 798 799 802 805 808 810 811 813
643 650 656 662 667 674 677 681 685 687 694 699 700 701 700 701 699 701 711 713 714 722 727 730 738 747 751 753 754 752 755 765 766 765 770 771 773 775 772 772 770 769 779 793 797 796 801 805 804 803 804 799 797 799 796 796 805 809 808 808 811 811 815 829 838 835 839 844 843 843 833 819 811 804 803 805 803 803 802 801 802 803 806 807 808 810 811 813
644 651 658 663 668 674 678 681 685 689 693 695 696 698 691 685 686 692 698 701 707 717 727 736 740 746 754 756 756 753 751 758 765 768 771 771 769 769 767 766 765 765 770 780 789 791 795 805 808 806 805 801 801 802 797 797 803 807 809 809 810 808 807 821 839 841 840 838 834 835 826 815 812 804 802 806 803 803 805 804 803 805 807 808 808 810 811 813
643 651 659 665 669 675 678 681 685 691 695 692 689 688 683 677 679 683 686 692 701 707 720 736 740 740 749 754 755 753 750 756 762 764 769 771 767 764 763 761 759 760 763 768 779 784 790 807 812 806 805 804 804 804 800 798 799 803 808 805 805 811 809 812 829 840 843 837 831 832 823 814 813 808 805 808 805 803 805 805 806 808 808 808 808 811 812 813
642 651 660 666 671 675 678 683 686 691 697 694 685 680 677 677 678 679 682 689 697 704 714 727 731 732 738 744 748 748 748 754 759 761 764 766 761 756 758 759 757 757 758 759 770 777 782 802 814 809 807 806 803 803 801 801 800 800 802 800 801 812 815 814 822 832 839 836 827 828 827 819 812 805 801 802 801 799 803 805 806 806 806 807 808 811 813 813
643 653 664 669 672 676 678 683 688 694 698 692 685 680 676 676 678 676 679 685 693 702 710 716 719 726 733 737 740 745 745 749 755 758 759 760 759 753 751 754 756 758 757 756 765 772 776 792 810 811 807 806 804 804 804 803 803 801 802 802 802 806 809 811 816 821 826 829 825 824 828 818 803 796 790 787 788 791 796 801 801 802 803 805 807 810 812 813
645 654 666 669 672 676 679 684 691 697 695 685 679 677 673 674 678 676 676 680 688 697 703 708 711 720 729 733 736 741 744 747 752 754 754 754 756 755 750 749 754 757 758 757 762 770 775 784 802 811 810 808 806 805 803 800 801 802 803 806 805 805 808 808 812 815 814 818 821 822 823 807 791 791 786 777 778 784 790 794 796 799 801 802 806 807 809 811
646 655 664 668 671 674 678 686 692 691 687 679 675 674 672 673 677 678 676 677 684 689 693 700 707 714 721 728 732 736 740 746 749 750 751 750 753 755 749 744 750 755 758 761 762 766 774 783 799 812 812 808 806 805 805 801 799 799 799 800 800 803 808 811 815 816 809 811 815 817 818 800 784 790 789 781 782 784 787 789 791 797 799 800 804 805 807 809
648 655 662 666 670 672 675 682 684 680 678 676 673 671 671 672 675 679 679 678 682 686 689 696 704 710 716 721 726 732 736 743 746 746 748 748 747 748 744 740 746 750 754 762 764 764 773 787 803 813 811 807 807 808 811 808 802 799 799 798 798 800 802 805 812 812 810 814 815 816 816 798 783 791 792 787 788 786 786 788 790 794 797 798 802 804 806 808
651 656 661 666 670 671 673 679 682 680 676 672 670 669 670 671 673 678 680 679 683 686 689 695 700 705 711 715 722 729 733 739 745 742 743 746 743 743 743 741 742 747 751 759 764 763 770 784 800 812 811 806 805 806 808 808 803 799 799 798 799 800 797 799 806 806 808 812 811 815 818 796 783 792 792 789 789 785 785 787 788 792 795 797 800 802 805 807
652 656 662 668 672 673 672 673 674 676 673 669 670 672 671 671 673 676 677 679 682 683 688 693 696 700 706 709 716 722 726 735 743 741 739 742 742 744 746 741 739 744 748 751 754 757 767 780 793 808 814 812 809 807 805 805 804 799 798 800 799 798 798 802 806 806 807 809 806 811 814 793 782 791 791 787 786 781 783 786 786 789 793 795 799 801 803 806
649 656 664 669 672 673 673 669 665 669 671 670 671 672 671 674 676 675 675 679 681 680 685 691 693 696 703 708 716 720 721 726 736 740 739 740 743 746 746 742 739 740 742 743 745 750 763 774 781 793 806 808 806 801 796 798 803 802 800 800 797 796 796 798 803 806 809 812 809 805 800 787 782 786 784 783 783 779 781 786 786 787 790 793 796 799 801 804
643 652 663 671 675 674 674 672 668 667 669 669 671 672 672 676 680 678 677 681 683 680 684 691 692 696 704 709 716 722 722 723 729 734 737 739 743 748 748 746 743 741 742 743 745 750 761 769 770 772 780 783 783 783 783 787 796 798 795 794 794 794 793 794 802 806 804 808 809 799 789 785 784 782 779 779 783 781 782 785 786 786 789 791 794 797 800 803
640 644 650 658 668 674 674 674 670 666 665 665 668 671 672 676 679 680 680 682 683 682 686 691 690 695 703 708 714 720 722 723 726 729 733 739 746 751 750 747 746 747 746 745 745 749 759 768 768 765 766 767 768 774 776 779 785 788 789 792 794 796 796 796 799 797 795 805 808 794 787 790 786 779 774 775 780 782 782 783 783 783 787 790 793 797 800 802
641 644 645 644 650 659 664 668 669 665 663 663 666 669 673 676 677 679 682 684 683 682 685 692 691 691 697 701 707 718 723 726 729 730 732 739 746 749 750 749 749 751 749 747 748 749 754 763 766 765 768 769 768 772 774 774 777 781 784 789 792 795 796 795 793 789 790 799 796 784 783 788 784 777 770 768 774 777 776 779 781 782 786 789 793 795 797 800
642 646 650 648 648 653 658 663 666 665 663 663 666 669 672 674 676 679 681 684 685 683 683 689 693 693 695 696 701 713 718 719 726 729 731 737 741 744 748 750 750 752 750 748 751 751 753 762 766 766 769 771 771 774 774 773 775 779 782 785 788 791 791 788 786 784 785 787 782 778 783 784 780 777 769 766 772 776 776 779 781 781 784 788 791 793 795 797
647 648 650 651 653 656 659 661 662 664 665 663 665 669 670 672 675 679 680 680 683 685 683 685 691 695 698 697 698 704 706 704 712 722 727 734 738 739 742 743 745 751 752 750 753 753 754 763 768 766 770 775 776 776 776 776 776 778 782 785 788 791 791 789 784 781 785 788 783 783 790 784 776 775 770 768 774 779 778 778 777 778 783 786 789 791 791 792
652 653 650 650 656 658 658 659 660 663 667 664 664 668 670 672 674 676 680 680 679 681 683 685 691 697 700 700 698 700 702 701 705 713 717 720 724 728 731 734 739 746 751 752 753 752 755 764 768 767 772 779 783 783 781 778 779 780 782 783 785 787 787 784 781 779 783 786 785 790 791 779 771 771 769 768 773 775 773 773 775 778 781 783 785 786 787 787
653 654 650 650 659 662 659 658 660 661 664 663 663 665 668 672 674 673 678 684 680 678 681 685 690 696 700 702 700 698 701 703 705 711 714 713 716 722 725 729 733 737 744 751 755 754 754 759 766 768 773 783 792 791 781 779 784 783 773 770 775 778 778 779 779 778 777 779 782 784 777 767 766 769 768 770 772 770 768 770 773 775 777 780 780 780 781 782